DELTA 1 DEB, 10754

Orbit data source: Space-Track

DELTA 1 DEB, 10754 is space debris in SSO originally from a launch on Thu, 29 Jul 1976 UTC launched from the Air Force Western Test Range (AFWTR). Debris objects in space refer to the collection of defunct objects orbiting the Earth. Examples of debris include non-operational satellites, rocket bodies, and fragments generated from explosions, collisions, or faulty payload assembly.

Loading next visibility...
Identifier
10754, 1976-077BB
Orbit
SSO
Country
Flag of USUS
Related business
Manufacturer
Unknown
Mission
Spacecraft
Bus & Motor
Unknown
Mass
Unknown
Launch date (UTC)
1976-07-29 (50 years ago)
Launch vehicle
Unknown
Launch site
Air Force Western Test Range (AFWTR)
Object type
Payload
Rocket body
Debris
Shape & HBR
Unknown shape, 0.2 m
Radar Cross Section
Medium (>0.1 m² and <1 m²)

Expand to show TLE details & history
Last TLE update: 16 hours ago

TLE from 16 hours ago
0 DELTA 1 DEB
1 10754U 76077BB  26255.77134931 -.00000047  00000-0  11385-5 0  9994
2 10754 102.7242 245.2071 0122795 294.9249 242.3236 12.21686999236133
Epoch: 2026-09-12T18:30Z
TLE epoch observation values (Epoch: 2026-09-12T18:30:44.580Z)
Latitude
3.80957°
Longitude
156.60315°
Altitude
1,633.644 km
Speed
7.035 km/s
True Right ascension
04h 24m 15s
True Declination
3° 47' 22"
Sunlit
Object was in daylight at epoch
Visualization orbit readout
Latitude
Unknown
Longitude
Unknown
Altitude
Unknown
Speed
Unknown
Apparent Right ascension
Unknown
Apparent Declination
Unknown
Sunlit
N/A
Visualization observer readout
Local Sidereal Time
02:32:51
Azimuth
Unknown
Elevation
Unknown
Doppler factor
Unknown
Orbital elements
Apogee altitude
1,680.601 km
Perigee altitude
1,485.087 km
Semi-major axis
7,960.981 km
Eccentricity
0.01228
Inclination
102.7242°
RAAN
245.2071°
Arg. of periapsis
294.9249°
True anomaly
241.08639°
Mean anomaly
242.3236°
Eccentric anomaly
241.7041°
Mean motion
3.05558 °/min
Orbital period
117.82 mins
BSTAR
0.0000011385
Loading maneuver chart data...
Computing Atmospheric mass density...
Loading historical data...
Loading historical data...
Loading historical data...
Loading historical data...
Loading historical data...
Loading historical data...
Loading historical data...

Documentation

Showing up to 5 results
|